User: anonymous   Login
Location: Killam
(52.7910°N, 111.8608°W)
Time: 06:43:42
(UTC+00:00)
Language:

Gurwin Techsat 1B - Orbit

View from above orbital plane
View from above orbital plane
View from above satellite
View from above satellite

Ground track
Ground track

The orbit is defined by the following mean orbital elements,

1 25397U          26069.93422836 +.00000000 +00000-0 +66872-4 0 00002
2 25397  99.0028  60.2373 0002091 117.7101 242.4289 14.24406481    02
Epoch (UTC): 10 March 2026 22:25:17
Eccentricity: 0.0002091
inclination: 99.0028°
perigee height: 809 km
apogee height: 812 km
right ascension of ascending node: 60.2373°
argument of perigee: 117.7101°
revolutions per day: 14.24406481
mean anomaly at epoch: 242.4289°

The dashed part of the orbit path shows where the satellite is in the earth's shadow,  

DLR